Skip Page Navigation
NASA JPL Caltech
NASA Logo - Jet Propulsion Laboratory + View the NASA Portal
+ Center for Near-Earth Object Studies
JPL Home Earth Solar System Stars & Galaxies Technology
JPL Solar System Dynamics
BODIES ORBITS EPHEMERIDES TOOLS PHYSICAL DATA DISCOVERY FAQ SITE MAP
JPL Small-Body Database Browser
Search: [ help ]  
9793 Torvalds (1996 BW4)
Classification: Main-belt Asteroid          SPK-ID: 2009793
Ephemeris | Orbit Diagram | Orbital Elements | Mission Design | Physical Parameters | Discovery Circumstances | Close-Approach Data ]

[ show orbit diagram ]
Orbital Elements at Epoch 2459200.5 (2020-Dec-17.0) TDB
Reference: JPL 21 (heliocentric ecliptic J2000)
 Element Value Uncertainty (1-sigma)   Units 
e .160713524035499 3.1165e-08  
a 2.254168907610655 6.361e-09 au
q 1.891893478697295 7.0696e-08 au
i 3.652467135370201 3.3882e-06 deg
node 72.38986008417481 6.7462e-05 deg
peri 344.3657289896709 6.867e-05 deg
M 191.6232843204055 1.3318e-05 deg
tp 2459778.672781747198
(2022-Jul-18.17278175)
4.6673e-05 TDB
period 1236.169743476094
3.38
5.2325e-06
1.433e-08
d
yr
n .2912221415383333 1.2327e-09 deg/d
Q 2.616444336524015 7.3832e-09 au
  Orbit Determination Parameters
   # obs. used (total)      1266  
   data-arc span      14087 days (38.57 yr)  
   first obs. used      1981-10-24  
   last obs. used      2020-05-19  
   planetary ephem.      DE441  
   SB-pert. ephem.      SB441-N16  
   condition code      0  
   norm. resid. RMS      .52663  
   source      ORB  
   producer      Otto Matic  
   solution date      2021-Apr-12 21:37:34  

Additional Information
 Earth MOID = .903465 au 
 Jupiter MOID = 2.71155 au 
 T_jup = 3.605 
[ show covariance matrix ]

Ephemeris | Orbit Diagram | Orbital Elements | Mission Design | Physical Parameters | Discovery Circumstances | Close-Approach Data ]

Physical Parameter Table
Parameter Symbol Value Units Sigma Reference Notes
absolute magnitude H 15.51   n/a E2021B10  
diameter diameter 4.586 km 0.162 urn:nasa:pds:neowise_diameters_albedos::2.0[mainbelt] (http://adsabs.harvard.edu/abs/2011ApJ...741...68M)  
rotation period rot_per 27.1793 h n/a LCDB (Rev. 2020-October); Warner et al., 2009 Result based on less than full coverage, so that the period may be wrong by 30 percent or so.
Published Reference List:
[Pal, A.; Szakats, R.; Kiss, C.; Bodi, A.; et al. (2019) Ap. J. Supl. Ser. 247, id.26.]
geometric albedo albedo 0.070   0.008 urn:nasa:pds:neowise_diameters_albedos::2.0[mainbelt] (http://adsabs.harvard.edu/abs/2011ApJ...741...68M)  

9793 Torvalds           Discovered 1996 Jan. 16 by Spacewatch at Kitt Peak.
Finnish computer scientist Linus Torvalds (b. 1969) created the Linux computer operating system used by Spacewatch and several other asteroid surveys for their data collection and analysis. The development of Linux involved a large Internet collaboration and demonstrates the possibilities of the free exchange of information.
NOTE: some special characters may not display properly (any characters within {} are an attempt to place the proper accent above a character)
Reference: 20001111/MPCPages.arcLast Updated: 2013-03-29

[ show close-approach data ]
Alternate Designations
 1996 BW4 = 1981 UX23 
Ephemeris | Orbit Diagram | Orbital Elements | Mission Design | Physical Parameters | Discovery Circumstances | Close-Approach Data ]
ABOUT SSD CREDITS/AWARDS PRIVACY/COPYRIGHT GLOSSARY LINKS
FirstGov 2021-May-18 12:39 UT
(server date/time)  
NASA Home Page
Site Manager:   Ryan S. Park
Webmaster  Alan B. Chamberlin